Location: Althorst
(53.6379°N, 10.7715°E)
Time: 15:37:13
(UTC+00:00)

Cosmos 2242 Rocket - Pass Details

Date: 10 December 2019
Orbit: 618 x 652 km, 82.5° (Epoch: 18 January)

Event Time Altitude Azimuth Distance (km) Brightness Sun altitude
Rises 17:00:26 0° 186° (S) 2,956 7.3 -17.0°
Reaches altitude 10° 17:02:40 10° 185° (S) 2,054 6.5 -17.3°
Maximum altitude 17:07:14 79° 99° (E) 671 3.5 -17.9°
Enters shadow 17:11:19 13° 14° (NNE) 1,860 5.7 -18.5°
